Volver al catálogo

USA 498

ActivoMilitarLEO
NORAD 63350·PAYLOAD·🇺🇸 United States

Lanzado Mar 24, 2025 desde Cape Canaveral Space Force Station

Loading…

Próximos Pases (próximas 24 horas)

TLE

ObsoletoSource: Mike McCants

Época: Aug 11, 2026, 21:20 UTC

1 63350U 25060A   26223.88940501 0.00000000  00000-0  00000-0 0    03
2 63350  63.4342 149.9187 0089000 177.0783 182.9217 13.41001349    06

Sigue USA 498 en tiempo real con AllMySat

Download on the App Store